Location: Penticton
(49.5000°N, 119.5830°W)
Time: 23:25:30
(UTC-07:00)

Daily predictions for brighter satellites

Satellite Brightness Start Highest point End
(mag) Time Altitude Azimuth Time Altitude Azimuth Time Altitude Azimuth
SL-16 R/B 2.7 20:27:07 10° S 20:32:18 39° ESE 20:37:31 10° NE
Cosmos 839 Rocket 4.1 20:27:35 10° SSW 20:33:38 59° ESE 20:39:53 10° NE
Okean 2 Rocket 3.3 20:29:30 10° SSW 20:34:00 82° W 20:38:34 10° N
EXPRESS MD2 3.8 20:34:17 10° SSW 20:36:43 30° SE 20:40:35 10° E
Cosmos 1655 Rocket 4.1 20:30:56 10° S 20:37:12 78° E 20:43:35 10° NNE
Lacrosse 5 rocket 3.3 20:34:31 10° W 20:37:13 20° SW 20:40:01 10° S
Cosmos 1939 Rocket 3.0 20:33:22 10° SSE 20:37:15 55° ENE 20:41:06 10° N
Meteor 1-19 Rocket 4.4 20:32:51 10° N 20:38:47 84° ENE 20:44:37 10° SSE
Cosmos 1536 3.6 20:36:43 10° SSE 20:40:23 33° E 20:44:04 10° NNE
Cosmos 1140 Rocket 4.1 20:37:34 10° NNW 20:42:43 59° WSW 20:47:51 10° S
ERBS 2.3 20:41:18 10° SW 20:44:46 82° SSE 20:48:15 10° ENE
Cosmos 614 Rocket 4.4 20:40:52 10° NNW 20:45:56 63° WSW 20:51:00 10° S
NOSS 3-1 (C) 4.1 20:40:49 10° WSW 20:46:44 63° NW 20:53:30 10° NE
Spot 2 Rocket 4.0 20:45:42 10° S 20:50:46 63° WSW 20:55:51 10° NNW
Resurs 1-3 4.4 20:47:38 10° S 20:51:56 53° W 20:56:15 10° NNW
SL-8 R/B 3.7 20:47:09 10° W 20:51:57 75° S 20:56:45 10° ESE
COSMOS 2428 4.5 20:51:42 10° ESE 20:53:20 11° E 20:55:00 10° ENE
Cosmos 2360 Rocket 3.2 20:49:49 10° SSE 20:54:17 25° ESE 20:58:46 10° NE
Cosmos 1980 Rocket 2.9 20:49:35 10° SW 20:55:08 61° WNW 21:00:42 10° NNE
NOSS 2-3 (C) 4.4 20:50:59 10° S 20:55:25 39° ESE 21:00:36 10° NE
USA 215 4.1 20:49:52 10° ENE 20:56:11 53° NNW 21:02:31 10° W
Abrixas rocket 2.2 20:54:35 10° W 20:57:51 75° S 21:01:03 11° E
Meteor 1-29 4.2 20:55:48 10° NE 20:58:33 22° E 21:01:16 10° SSE
Helios 1B rocket 3.1 20:55:42 10° NNE 20:59:26 33° E 21:03:09 10° SSE
USA 238 DEB 4.0 20:57:08 10° NW 21:04:11 65° NE 21:10:39 13° ESE
Meteor 1-5 Rocket 4.3 20:59:10 10° SSE 21:04:14 47° E 21:09:18 10° NNE
USA 238 4.0 20:57:14 10° NW 21:04:17 64° NE 21:10:45 13° ESE
SJ-11-01 4.4 21:00:04 10° SSE 21:04:44 83° WSW 21:09:26 10° NNW
PEGASUS R/B 4.4 21:05:46 10° NNE 21:08:49 88° ESE 21:14:05 10° SSW
Meteor 2-4 Rocket 3.9 21:03:58 10° NNW 21:09:31 79° W 21:15:11 10° S
ERS-1 Rocket 3.2 21:06:33 10° SE 21:11:22 54° ENE 21:16:16 10° N
Tiangong 1 3.0 21:10:13 10° SW 21:11:51 14° SSW 21:13:04 12° SSE
NOAA 11 4.3 21:08:41 10° SSE 21:14:06 64° ENE 21:19:34 10° N
SAR-Lupe-4 3.9 21:11:38 14° SE 21:14:33 49° ENE 21:18:04 10° N
Terra 3.7 21:12:26 10° E 21:15:15 16° NE 21:18:04 10° NNE
Okean 1 Rocket 3.1 21:11:54 10° S 21:16:10 56° E 21:20:28 10° NNE
Spot 1 4.5 21:11:43 10° SSE 21:16:52 82° ENE 21:21:55 10° NNW
Cosmos 1300 Rocket 3.5 21:14:31 10° S 21:18:50 87° E 21:23:10 10° N
Cosmos 220 Rocket 4.0 21:14:52 10° NNW 21:19:11 82° WSW 21:23:13 12° SSE
Cosmos 1025 Rocket 3.0 21:15:25 10° N 21:19:41 64° ENE 21:23:26 13° SSE
Envisat 4.1 21:15:12 10° S 21:20:03 45° W 21:24:57 10° NNW
ATLAS 3B R/B 2.7 21:14:37 10° NW 21:21:29 82° NE 21:26:52 16° SE
Okean 1-7 Rocket 3.6 21:17:31 10° N 21:22:00 65° ENE 21:25:57 13° SSE
Cosmos 1607 4.3 21:16:14 10° NW 21:22:37 65° WSW 21:28:39 12° SSE
H-2A R/B 2.8 21:20:05 16° ESE 21:23:30 35° ENE 21:28:00 10° N
Resurs 01 Rocket 3.9 21:22:21 10° SSW 21:26:00 24° W 21:29:40 10° NW
SAR-Lupe-1 4.1 21:29:03 19° SSE 21:31:27 66° ENE 21:35:02 10° N
MetOp-A 4.1 21:26:58 14° SSE 21:31:38 72° ENE 21:36:59 10° N
Okean 2 3.3 21:27:34 10° N 21:31:41 73° E 21:34:49 17° SSE
Cosmos 405 4.2 21:33:02 23° ESE 21:33:46 25° E 21:36:45 10° NE
NOSS 2-3 (D) 3.9 21:30:19 10° SSW 21:35:05 72° SE 21:40:48 10° NE
Cosmos 1486 Rocket 4.2 21:33:20 10° NNW 21:38:33 57° ENE 21:41:49 22° SE
Cosmos 2315 Rocket 4.0 21:32:23 10° N 21:38:40 90° E 21:44:55 10° S
Cosmos 2266 Rocket 4.0 21:32:57 10° SSW 21:39:00 80° W 21:45:05 10° N
NOSS 3-2 (C) 4.4 21:33:49 10° NW 21:40:54 55° NE 21:46:54 18° ESE
Cosmos 1238 Rocket 4.2 21:35:44 10° N 21:42:27 62° ENE 21:47:12 19° SSE
Cosmos 1743 4.3 21:44:46 19° E 21:44:46 19° E 21:47:26 10° NE
H-2A R/B 4.1 21:44:05 13° E 21:45:43 15° ENE 21:48:15 10° NNE
USA 245 3.7 21:45:31 21° SSE 21:48:46 70° ENE 21:52:50 10° N
Nadezhda 2 Rocket 4.4 21:43:02 10° S 21:49:10 77° E 21:55:26 10° NNE
Cosmos 1110 Rocket 3.9 21:44:06 10° S 21:49:13 67° ESE 21:54:23 10° NNE
Helios 1A 4.2 21:45:30 10° S 21:49:30 40° W 21:53:33 10° NNW
CZ-4B DEB 3.9 21:49:53 16° SSW 21:51:50 36° W 21:54:33 10° NNW
ARGOS 3.1 21:50:07 19° SSE 21:54:02 88° ENE 21:59:28 10° NNW
Cosmos 1975 3.2 21:55:37 33° SE 21:56:53 44° E 22:00:43 10° NNE
BREEZE-M DEB (TANK) 3.5 21:53:20 10° WSW 21:57:07 68° SSE 22:10:52 10° ENE
Cosmos 2263 Rocket 3.6 21:52:45 10° NW 21:57:48 33° WSW 22:02:47 10° SSW
Cosmos 2278 Rocket 3.2 21:54:35 10° NNW 21:59:47 35° NE 22:02:46 21° E
Cosmos 1515 4.0 21:56:50 10° NNW 22:00:38 62° W 22:02:53 22° S
ATLAS 2AS CENTAUR R/B 3.0 21:54:01 10° SW 22:01:49 81° SE 22:10:01 10° NE
Cosmos 1626 Rocket 4.5 21:58:56 10° N 22:02:49 31° ENE 22:03:49 28° E
Cosmos 1331 Rocket 3.9 21:57:58 10° SSW 22:03:09 78° ESE 22:08:25 10° NNE
Cosmos 2322 Rocket 3.2 21:59:13 10° SW 22:04:44 50° NW 22:10:18 10° NNE
Aureole 3 Rocket 4.5 21:55:45 10° N 22:04:50 84° E 22:09:37 22° SSE
Cosmos 1892 Rocket 3.5 22:00:29 10° N 22:04:58 84° E 22:07:05 30° SSE
Cosmos 724 4.4 21:59:14 10° NW 22:05:09 66° NE 22:08:12 29° ESE
Cosmos 1844 Rocket 2.7 21:59:54 10° NNW 22:05:37 78° ENE 22:08:33 30° SE
SPOT 5 2.8 22:03:22 26° SSE 22:06:07 90° NNW 22:10:46 10° NNW
SeaSat 1 3.5 22:02:17 10° NNE 22:07:02 49° NW 22:11:46 10° SW
Cosmos 1745 Rocket 4.3 22:05:32 27° SSE 22:08:32 47° E 22:14:23 10° NNE
Cosmos 2237 4.2 22:03:00 10° S 22:08:33 57° ESE 22:14:09 10° NE
CENTAUR R/B 3.8 22:04:10 10° NW 22:11:17 44° NNE 22:17:32 16° E
Lacrosse 5 1.7 22:06:50 10° SW 22:11:53 73° SE 22:16:58 10° ENE
NOSS 2-3 (E) 4.4 22:07:18 10° SW 22:12:10 66° NW 22:18:05 10° NE
Meteor 1-12 Rocket 4.3 22:09:55 25° SSE 22:13:11 60° E 22:18:45 10° NNE
Cosmos 1354 Rocket 4.2 22:10:11 10° NNW 22:15:30 62° ENE 22:17:39 35° SE
SL-16 R/B 3.5 22:11:01 10° WSW 22:16:23 43° NW 22:21:48 10° NNE
Molniya-1 3.9 22:16:51 10° NW 22:19:29 56° SW 22:19:41 54° SSW
Cosmos 1500 3.3 22:18:05 26° SSW 22:20:09 73° W 22:24:04 10° N
ERBS 4.4 22:18:39 10° WNW 22:21:44 29° NNW 22:24:50 10° NE
Cosmos 2219 Rocket 2.8 22:22:53 34° ESE 22:23:26 34° ESE 22:28:30 10° NE
Cosmos 1544 Rocket 3.5 22:22:01 38° S 22:23:40 74° E 22:28:09 10° NNE
ATLAS CENTAUR R/B 3.5 22:21:42 10° N 22:24:01 16° NNE 22:25:49 12° ENE
SPOT 1/Viking Rocket 3.6 22:22:17 31° S 22:24:52 81° WSW 22:30:08 10° NNW
GP-B 3.6 22:20:56 10° NNE 22:25:09 40° E 22:25:35 38° E
Cosmos 1818 3.9 22:24:01 37° SSE 22:25:12 42° ESE 22:30:19 10° NE
Cosmos 2322 3.7 22:20:52 10° SSW 22:26:32 87° WNW 22:32:16 10° NNE
SL-8 R/B 4.4 22:29:46 10° W 22:34:10 37° SSW 22:34:44 36° SSW
Abrixas rocket 3.2 22:31:16 10° W 22:33:38 37° WSW 22:33:38 37° WSW
Helios 1B rocket 4.5 22:31:09 10° N 22:34:40 28° WNW 22:38:10 10° WSW
SL-08 RB Rocket 4.5 22:33:49 26° SSW 22:36:03 47° W 22:40:27 10° NNW
Cosmos 1455 Rocket 3.0 22:34:49 44° S 22:36:13 86° ESE 22:40:43 10° N
COSMOS 2428 2.6 22:33:06 25° S 22:36:30 67° ESE 22:42:11 10° NNE
Landsat 7 3.7 22:35:30 44° S 22:37:01 86° WSW 22:41:49 10° NNW
ARGOS Delta rocket 4.5 22:32:52 10° NNE 22:36:53 35° E 22:36:53 35° E
Cosmos 1503 Rocket 4.0 22:31:51 10° NNW 22:37:16 89° ENE 22:39:03 44° SSE
Cosmos 2360 Rocket 2.6 22:32:17 10° SW 22:37:51 63° WNW 22:43:27 10° NNE
USA 215 4.1 22:32:24 10° ENE 22:38:37 48° N 22:44:50 10° WNW
Cosmos 1437 Rocket 2.7 22:38:51 65° ESE 22:38:54 65° E 22:42:51 10° NNE
IGS 5A 3.4 22:38:54 61° ESE 22:39:27 70° ENE 22:43:36 10° N
Cosmos 1844 3.7 22:35:31 10° NNW 22:41:12 77° WSW 22:43:14 41° SSE
Cosmos 1241 Rocket 4.5 22:35:43 10° SSW 22:42:11 66° ESE 22:48:36 10° NE
ATLAS CENTAUR R/B 4.5 22:27:30 10° WNW 22:45:47 59° N 22:50:49 16° E
COSMOS 2455 3.9 22:41:05 10° NNW 22:46:36 36° NE 22:49:32 23° E
Cosmos 2333 Rocket 2.5 22:49:41 44° ESE 22:49:54 44° ESE 22:55:15 10° NE
Terra 1.7 22:51:20 56° S 22:52:21 86° WSW 22:57:09 10° NNW
NOSS 3-2 (A) 4.1 22:46:17 10° NW 22:53:37 67° SW 22:57:01 37° SSE
EXPRESS MD2 3.9 22:50:27 10° W 22:54:12 86° N 23:02:11 10° E
Nadezhda 1 Rocket 4.1 22:48:30 10° NNW 22:54:48 74° W 22:57:38 35° S
Cosmos 2333 4.1 22:54:44 28° SSW 22:57:49 87° ESE 23:03:28 10° NNE
Meteor 1-4 Rocket 4.2 23:00:56 26° NE 23:00:56 26° NE 23:03:02 10° NNE
H-2A R/B 3.1 23:00:43 25° SW 23:02:55 36° W 23:07:31 10° NNW
Cosmos 1666 2.8 23:05:46 73° NW 23:05:46 73° NW 23:09:29 10° N
Cosmos 1842 3.3 23:03:47 10° NNW 23:07:28 76° NW 23:07:28 76° NW
ALOS 2 4.4 23:07:50 20° ENE 23:08:04 21° ENE 23:11:18 10° NNE
CARTOSAT-1 3.8 23:07:46 55° SW 23:08:13 58° W 23:12:30 10° NNW
Cosmos 2237 Rocket 2.7 23:09:10 42° E 23:09:10 42° E 23:14:00 10° NE
Cosmos 2181 Rocket 4.0 23:04:33 10° N 23:11:02 71° E 23:12:40 51° SE
ATLAS 3B R/B 4.1 23:06:12 10° WNW 23:11:25 25° WSW 23:14:07 19° SW
Timation 1 Rocket 4.3 23:08:35 10° NNW 23:14:34 75° WSW 23:15:54 55° S
Cosmos 1980 3.9 23:15:03 51° ESE 23:15:03 51° ESE 23:20:27 10° NE
Cosmos 1709 Rocket 3.9 23:14:59 54° SSE 23:16:23 72° E 23:22:38 10° NNE
Cosmos 1602 Rocket 4.0 23:12:22 10° NNW 23:16:36 53° W 23:16:55 51° WSW
Cosmos 1743 3.8 23:19:53 37° W 23:20:17 38° WNW 23:23:54 10° N
H-2A R/B 2.0 23:21:12 79° W 23:21:12 79° W 23:25:34 10° NNW
Spot 4 3.6 23:21:44 81° SSE 23:21:58 89° WSW 23:26:47 10° NNW
Cosmos 1953 Rocket 4.1 23:18:22 10° N 23:22:23 48° ENE 23:22:23 48° ENE
Cosmos 1992 Rocket 3.8 23:25:06 76° SE 23:25:22 78° ESE 23:30:37 10° NNE
Aureole 2 Rocket 4.1 23:31:18 31° NNW 23:31:18 31° NNW 23:33:19 10° N
Cosmos 2297 3.8 23:24:37 10° NNW 23:30:16 66° ENE 23:31:07 58° ESE
NOSS 3-2 (C) 4.3 23:24:51 10° NW 23:32:03 53° WSW 23:34:19 42° SSW
Cosmos 968 Rocket 3.3 23:27:09 10° NNW 23:32:18 83° WSW 23:32:32 80° SSW
deb Chang Zheng 4 3.9 23:35:45 10° NNE 23:39:27 61° NNE 23:39:27 61° NNE
Cosmos 2278 Rocket 2.6 23:38:37 10° NW 23:44:04 50° WSW 23:44:36 48° SW
Cosmos 972 Rocket 4.1 23:43:47 73° S 23:44:23 86° ESE 23:50:34 10° NNE
CZ-4 R/B 3.8 23:40:29 10° NNE 23:45:12 84° NW 23:45:12 84° NW
Cosmos 1606 Rocket 4.2 23:47:24 51° NE 23:47:24 51° NE 23:50:54 10° NNE
Cosmos 1844 Rocket 4.5 23:44:54 10° NW 23:48:52 20° W 23:50:13 18° WSW
DNEPR-1 R/B 3.9 23:45:25 10° NW 23:49:13 67° NW 23:49:13 67° NW
Mayak 1.1 23:47:26 10° NE 23:48:32 14° ENE 23:48:32 14° ENE
